IW5EFR Vecchia di Pontedera IT current weather conditions

sailwx.info

Wind from 257 at 3 knots gusting 8

Air temperature 33.3° C
Dewpoint 18.6° C

Last reported at 2015-Jul-02 11:50 UTC.
Time now 2015-Jul-02 12:35 UTC

Location: N 43°37' E 010°38'.
View on Google Maps.

See reports from other nearby stations

  
Tides and Currents Weather Stations Pressure Air Temp Water Temp Dewpoint Dewpoint Depression Visibility Wind Speed Wind Dir Waves Ship Positions
date/time (UTC)wind fromknots sea level pressurealtimeterstation pressurevisibilityair tempwater tempwave heightnotes
2015-Jul-02 11:50 257 3 gusting 8 33.3
2015-Jul-02 11:45 320 3 gusting 8 32.8
2015-Jul-02 11:40 288 1 gusting 10 32.8
2015-Jul-02 11:35 234 4 gusting 10 32.8
2015-Jul-02 11:30 267 6 gusting 6 32.8
2015-Jul-02 11:25 271 5 gusting 6 32.8
2015-Jul-02 11:20 275 4 gusting 7 33.3
2015-Jul-02 11:15 297 3 gusting 7 33.3
2015-Jul-02 11:10 286 33.3
2015-Jul-02 11:05 288 0 gusting 6 32.8
2015-Jul-02 11:00 267 4 gusting 5 32.8
2015-Jul-02 10:55 258 0 gusting 5 32.8
2015-Jul-02 10:50 257 3 gusting 7 32.8
2015-Jul-02 10:45 288 3 gusting 7 32.8
2015-Jul-02 10:40 134 3 gusting 4 32.8
2015-Jul-02 10:35 281 0 gusting 4 32.8
2015-Jul-02 10:30 262 5 gusting 5 32.8
2015-Jul-02 10:25 249 32.8
2015-Jul-02 10:20 220 32.2
2015-Jul-02 10:15 284 3 gusting 3 32.2
2015-Jul-02 10:10 307 1 gusting 6 32.2
2015-Jul-02 10:05 301 2 gusting 6 31.7
2015-Jul-02 09:59 254 0 gusting 5 31.7
2015-Jul-02 09:54 264 3 gusting 5 31.7
2015-Jul-02 09:49 265 4 gusting 4 31.7
2015-Jul-02 09:44 249 0 gusting 4 31.7
2015-Jul-02 09:40 266 1 gusting 3 31.1
2015-Jul-02 09:35 302 31.7
2015-Jul-02 09:30 315 1 gusting 6 31.7
2015-Jul-02 09:25 321 0 gusting 6 31.1
2015-Jul-02 09:20 319 31.1
2015-Jul-02 09:15 302 0 gusting 4 30.6
2015-Jul-02 09:10 268 2 gusting 3 30.6
2015-Jul-02 09:05 046 30.0
2015-Jul-02 09:00 339 0 gusting 4 30.0
2015-Jul-02 08:55 337 1 gusting 4 30.0
2015-Jul-02 08:50 337 3 gusting 4 29.4
2015-Jul-02 08:45 337 1 gusting 4 29.4
2015-Jul-02 08:40 005 0 gusting 4 29.4
2015-Jul-02 08:35 005 28.9
2015-Jul-02 08:30 005 3 gusting 3 28.9
2015-Jul-02 08:25 030 2 gusting 3 28.9
2015-Jul-02 08:20 101 1 gusting 3 28.9
2015-Jul-02 08:15 105 1 gusting 3 28.9
2015-Jul-02 08:10 103 28.3
2015-Jul-02 08:05 103 2 gusting 3 28.3
2015-Jul-02 07:57 104 28.3
2015-Jul-02 07:52 104 0 gusting 3 27.8
2015-Jul-02 07:47 107 1 gusting 3 27.8
2015-Jul-02 07:28 134 2 gusting 2 27.2
2015-Jul-02 07:23 167 26.7
2015-Jul-02 07:18 167 26.7
2015-Jul-02 07:13 167 1 gusting 1 26.7
2015-Jul-02 07:08 167 26.1
2015-Jul-02 07:03 167 25.6
2015-Jul-02 06:58 167 25.6
2015-Jul-02 06:53 167 25.0
2015-Jul-02 06:48 167 25.0
2015-Jul-02 06:43 167 25.0
2015-Jul-02 06:38 167 24.4
2015-Jul-02 06:33 167 23.9
2015-Jul-02 06:28 167 1 gusting 2 23.9
2015-Jul-02 06:23 167 0 gusting 2 23.3
2015-Jul-02 06:18 167 0 gusting 2 23.3
2015-Jul-02 06:13 167 2 gusting 2 23.3
2015-Jul-02 06:08 167 1 gusting 2 22.8
2015-Jul-02 06:03 167 22.8
2015-Jul-02 05:58 167 0 gusting 3 22.2
2015-Jul-02 05:53 167 2 gusting 3 22.2
2015-Jul-02 05:48 167 0 gusting 3 21.7
2015-Jul-02 05:43 167 1 gusting 3 21.7
2015-Jul-02 05:38 167 2 gusting 3 21.1
2015-Jul-02 05:33 167 1 gusting 3 21.1
2015-Jul-02 05:28 167 1 gusting 3 21.1
2015-Jul-02 05:23 167 1 gusting 2 20.6
2015-Jul-02 05:18 167 2 gusting 2 20.6
2015-Jul-02 05:13 167 2 gusting 2 20.6
2015-Jul-02 05:08 167 1 gusting 2 20.6
2015-Jul-02 05:03 167 1 gusting 2 20.0
2015-Jul-02 04:58 167 1 gusting 3 20.0
2015-Jul-02 04:53 167 1 gusting 4 20.0
2015-Jul-02 04:48 167 1 gusting 4 19.4
2015-Jul-02 04:43 167 0 gusting 5 19.4
2015-Jul-02 04:38 167 19.4
2015-Jul-02 04:33 167 0 gusting 5 19.4
2015-Jul-02 04:28 167 2 gusting 5 19.4
2015-Jul-02 04:23 169 3 gusting 5 19.4
2015-Jul-02 04:18 164 3 gusting 5 19.4
2015-Jul-02 04:13 164 3 gusting 5 19.4
2015-Jul-02 04:08 164 5 gusting 5 19.4
2015-Jul-02 04:03 164 3 gusting 5 19.4
2015-Jul-02 03:58 164 1 gusting 4 19.4
2015-Jul-02 03:53 164 3 gusting 3 19.4
2015-Jul-02 03:48 164 3 gusting 3 18.9
2015-Jul-02 03:43 164 3 gusting 4 18.9
2015-Jul-02 03:38 164 0 gusting 4 19.4
2015-Jul-02 03:33 164 1 gusting 3 19.4
2015-Jul-02 03:28 164 1 gusting 3 19.4
2015-Jul-02 03:23 164 2 gusting 3 19.4
2015-Jul-02 03:18 164 3 gusting 3 19.4
2015-Jul-02 03:13 164 19.4
2015-Jul-02 03:08 164 1 gusting 1 19.4
2015-Jul-02 03:03 164 2 gusting 1 19.4
2015-Jul-02 02:58 164 19.4
2015-Jul-02 02:53 164 0 gusting 2 19.4
2015-Jul-02 02:48 164 0 gusting 2 19.4
2015-Jul-02 02:43 164 20.0
2015-Jul-02 02:38 164 1 gusting 2 20.0
2015-Jul-02 02:33 164 1 gusting 1 20.0
2015-Jul-02 02:28 164 1 gusting 1 20.0
2015-Jul-02 02:23 164 20.0
2015-Jul-02 02:18 164 1 gusting 2 20.0
2015-Jul-02 02:13 164 20.0
2015-Jul-02 02:08 164 20.0
2015-Jul-02 02:03 164 0 gusting 3 20.0
2015-Jul-02 01:58 164 0 gusting 3 20.6
2015-Jul-02 01:53 164 20.6
2015-Jul-02 01:48 164 0 gusting 3 20.6
2015-Jul-02 01:43 164 0 gusting 3 20.6
2015-Jul-02 01:38 164 2 gusting 3 20.6
2015-Jul-02 01:33 164 1 gusting 4 20.6
2015-Jul-02 01:28 164 1 gusting 4 20.6
2015-Jul-02 01:23 164 1 gusting 6 21.1
2015-Jul-02 01:18 164 21.1
2015-Jul-02 01:13 164 0 gusting 6 21.1
2015-Jul-02 01:08 164 3 gusting 6 21.1
2015-Jul-02 01:03 164 2 gusting 6 21.1
2015-Jul-02 00:58 164 4 gusting 3 21.1
2015-Jul-02 00:53 168 4 gusting 4 21.1
2015-Jul-02 00:48 178 2 gusting 4 21.1
2015-Jul-02 00:43 178 0 gusting 4 21.1
2015-Jul-02 00:38 177 0 gusting 4 21.1
2015-Jul-02 00:33 178 1 gusting 3 21.1
2015-Jul-02 00:28 177 1 gusting 3 21.1
2015-Jul-02 00:23 177 0 gusting 5 21.1
2015-Jul-02 00:18 178 2 gusting 5 21.1
2015-Jul-02 00:13 178 1 gusting 3 21.1
2015-Jul-02 00:08 178 1 gusting 3 21.1
2015-Jul-02 00:03 178 2 gusting 3 21.7
2015-Jul-01 23:58 178 3 gusting 3 21.7
2015-Jul-01 23:53 189 0 gusting 3 21.7
2015-Jul-01 23:48 194 1 gusting 3 21.7
2015-Jul-01 23:43 227 1 gusting 1 21.7
2015-Jul-01 23:38 235 21.7
2015-Jul-01 23:33 235 2 gusting 1 21.7
2015-Jul-01 23:28 236 21.7
2015-Jul-01 23:23 236 0 21.7
2015-Jul-01 23:18 236 21.7
2015-Jul-01 23:13 236 0 22.2
2015-Jul-01 23:08 236 1 22.2
2015-Jul-01 23:03 236 22.2
2015-Jul-01 22:58 236 22.2
2015-Jul-01 22:53 236 22.2
2015-Jul-01 22:48 236 22.2
2015-Jul-01 22:43 236 22.8
2015-Jul-01 22:38 236 22.8
2015-Jul-01 22:33 236 22.8
2015-Jul-01 22:28 236 22.8
2015-Jul-01 22:23 236 22.8
2015-Jul-01 22:18 246 22.8
2015-Jul-01 22:13 250 0 23.3
2015-Jul-01 22:08 251 23.3
2015-Jul-01 22:03 251 23.9
2015-Jul-01 21:58 251 0 gusting 1 23.9
2015-Jul-01 21:53 252 24.4
2015-Jul-01 21:48 252 24.4
2015-Jul-01 21:43 252 25.0
2015-Jul-01 21:38 252 25.0
2015-Jul-01 21:33 252 25.0
2015-Jul-01 21:28 252 25.0
2015-Jul-01 21:23 252 25.0
2015-Jul-01 21:18 252 25.0
2015-Jul-01 21:13 246 25.0
2015-Jul-01 21:08 246 25.0
2015-Jul-01 21:03 246 2 gusting 2 25.6
2015-Jul-01 20:58 246 25.6
2015-Jul-01 20:53 246 25.6
2015-Jul-01 20:48 246 1 gusting 2 25.6
2015-Jul-01 20:43 246 25.6
2015-Jul-01 20:38 246 0 gusting 3 25.6
2015-Jul-01 20:33 246 26.1
2015-Jul-01 20:28 246 26.1
2015-Jul-01 20:23 246 0 gusting 4 26.1
2015-Jul-01 20:18 246 1 gusting 4 26.1
2015-Jul-01 20:13 246 0 gusting 3 26.1
2015-Jul-01 20:08 261 0 gusting 3 26.1
2015-Jul-01 20:03 262 1 gusting 3 26.1
2015-Jul-01 19:58 262 1 gusting 4 26.1
2015-Jul-01 19:53 262 0 gusting 4 26.7
2015-Jul-01 19:48 262 1 gusting 4 26.7
2015-Jul-01 19:43 262 2 gusting 5 26.7
2015-Jul-01 19:38 262 1 gusting 5 26.7
2015-Jul-01 19:33 263 1 gusting 5 26.7
2015-Jul-01 19:28 263 27.2
2015-Jul-01 19:23 261 0 gusting 6 27.2
2015-Jul-01 19:18 261 27.2
2015-Jul-01 19:13 259 1 gusting 6 27.2
2015-Jul-01 19:08 251 27.2
2015-Jul-01 19:03 254 2 gusting 6 27.8
2015-Jul-01 18:58 249 0 gusting 6 27.8
2015-Jul-01 18:53 255 27.8
2015-Jul-01 18:48 259 3 gusting 6 28.3
2015-Jul-01 18:43 266 2 gusting 6 28.3
2015-Jul-01 18:38 268 3 gusting 6 28.3
2015-Jul-01 18:33 263 0 gusting 6 28.3
2015-Jul-01 18:28 244 2 gusting 6 28.9
2015-Jul-01 18:23 269 0 gusting 9 28.9
2015-Jul-01 18:18 263 2 gusting 9 28.9
2015-Jul-01 18:13 244 4 gusting 7 28.9
2015-Jul-01 18:08 266 4 gusting 7 29.4
2015-Jul-01 18:03 252 3 gusting 7 29.4
2015-Jul-01 17:58 277 2 gusting 9 29.4
2015-Jul-01 17:53 242 5 gusting 8 29.4
2015-Jul-01 17:48 265 2 gusting 8 29.4
2015-Jul-01 17:43 246 4 gusting 9 30.0
2015-Jul-01 17:38 277 5 gusting 9 30.0
2015-Jul-01 17:33 300 6 gusting 9 30.0
2015-Jul-01 17:28 271 3 gusting 9 30.0
2015-Jul-01 17:23 261 3 gusting 8 30.6
2015-Jul-01 17:18 298 5 gusting 8 30.6
2015-Jul-01 17:13 279 1 gusting 8 30.6
2015-Jul-01 17:08 282 2 gusting 8 30.6
2015-Jul-01 17:03 261 4 gusting 8 31.1
2015-Jul-01 16:58 265 3 gusting 12 30.6
2015-Jul-01 16:53 254 7 gusting 10 30.6
2015-Jul-01 16:48 229 5 gusting 10 30.6
2015-Jul-01 16:43 253 7 gusting 11 30.6
2015-Jul-01 16:38 268 3 gusting 11 30.6
2015-Jul-01 16:33 273 3 gusting 11 30.6
2015-Jul-01 16:28 246 3 gusting 11 30.6
2015-Jul-01 16:23 269 5 gusting 9 31.1
2015-Jul-01 16:18 274 5 gusting 9 31.1
2015-Jul-01 16:13 273 6 gusting 13 31.1
2015-Jul-01 16:08 271 1 gusting 13 31.1
2015-Jul-01 16:03 284 2 gusting 13 31.1
2015-Jul-01 15:58 327 1 gusting 13 31.1
2015-Jul-01 15:53 271 6 gusting 11 31.1
2015-Jul-01 15:48 261 6 gusting 11 31.7
2015-Jul-01 15:43 293 3 gusting 13 31.1
2015-Jul-01 15:38 260 4 gusting 13 31.1
2015-Jul-01 15:33 279 9 gusting 11 31.1
2015-Jul-01 15:28 264 4 gusting 11 31.1
2015-Jul-01 15:23 265 3 gusting 12 31.1
2015-Jul-01 15:18 264 7 gusting 12 31.7
2015-Jul-01 15:13 265 6 gusting 13 31.7
2015-Jul-01 15:08 270 4 gusting 13 31.7
2015-Jul-01 15:03 263 2 gusting 13 31.7
2015-Jul-01 14:58 277 6 gusting 10 31.7
2015-Jul-01 14:53 280 5 gusting 14 31.7
2015-Jul-01 14:48 281 5 gusting 14 31.7
2015-Jul-01 14:43 271 6 gusting 13 31.7
2015-Jul-01 14:38 284 4 gusting 13 31.7
2015-Jul-01 14:33 267 6 gusting 10 32.2
2015-Jul-01 14:28 269 8 gusting 10 32.2
2015-Jul-01 14:23 306 2 gusting 11 32.8
2015-Jul-01 14:18 326 6 gusting 11 32.8
2015-Jul-01 14:13 270 4 gusting 11 32.8
2015-Jul-01 14:08 250 3 gusting 12 32.8
2015-Jul-01 14:03 327 5 gusting 12 33.3
2015-Jul-01 13:58 265 3 gusting 10 33.3
2015-Jul-01 13:53 296 2 gusting 13 33.3
2015-Jul-01 13:48 281 8 gusting 13 33.3
2015-Jul-01 13:43 263 6 gusting 13 33.3
2015-Jul-01 13:38 252 4 gusting 13 33.3
2015-Jul-01 13:33 269 7 gusting 13 33.3
2015-Jul-01 13:28 251 1 gusting 12 33.3
2015-Jul-01 13:23 257 1 gusting 4 33.9
2015-Jul-01 13:18 275 7 gusting 4 33.9
2015-Jul-01 13:13 321 3 gusting 6 34.4
2015-Jul-01 13:08 315 1 gusting 6 33.9
2015-Jul-01 13:03 273 0 gusting 6 33.3
2015-Jul-01 12:58 099 33.3
2015-Jul-01 12:53 099 32.8
2015-Jul-01 12:48 139 1 gusting 7 32.8
2015-Jul-01 12:43 103 32.8
2015-Jul-01 12:38 103 0 gusting 7 32.8
2015-Jul-01 12:33 119 3 gusting 2 33.3
2015-Jul-01 12:28 169 0 gusting 2 32.8
2015-Jul-01 12:23 138 1 gusting 2 33.3
2015-Jul-01 12:18 100 1 gusting 5 33.3
2015-Jul-01 12:13 350 33.3
2015-Jul-01 12:08 350 0 gusting 5 33.3
2015-Jul-01 12:03 350 2 gusting 5 33.3
2015-Jul-01 11:58 348 0 gusting 6 32.8
2015-Jul-01 11:53 327 0 gusting 4 32.8
2015-Jul-01 11:48 355 2 gusting 4 32.8
2015-Jul-01 11:43 005 4 gusting 5 32.8
2015-Jul-01 11:38 346 1 gusting 5 32.8
2015-Jul-01 11:33 013 2 gusting 3 32.2
2015-Jul-01 11:28 086 1 gusting 3 32.2
2015-Jul-01 11:23 093 32.8
2015-Jul-01 11:18 088 4 gusting 6 32.8
2015-Jul-01 11:13 338 32.8
2015-Jul-01 11:08 317 2 gusting 5 32.2
2015-Jul-01 11:03 115 0 gusting 5 32.2
2015-Jul-01 10:59 111 0 gusting 3 32.2
2015-Jul-01 10:54 023 1 gusting 3 32.2
2015-Jul-01 10:49 012 0 gusting 6 32.2
2015-Jul-01 10:44 113 32.2
2015-Jul-01 10:23 019 1 gusting 5 32.2
2015-Jul-01 10:18 020 32.2
2015-Jul-01 10:13 020 1 gusting 5 31.7
2015-Jul-01 10:08 051 0 gusting 3 31.7
2015-Jul-01 09:58 009 0 gusting 4 31.7
2015-Jul-01 09:53 005 1 gusting 4 31.7
2015-Jul-01 09:48 005 31.7
2015-Jul-01 09:43 005 2 gusting 6 31.1
2015-Jul-01 09:38 109 31.1
2015-Jul-01 09:33 109 30.6
2015-Jul-01 09:28 015 2 gusting 5 30.6
2015-Jul-01 09:23 080 0 gusting 5 30.6
2015-Jul-01 09:18 084 30.0
2015-Jul-01 09:13 082 2 gusting 5 30.0
2015-Jul-01 09:08 074 0 gusting 5 30.0
2015-Jul-01 09:03 038 0 gusting 5 30.0
2015-Jul-01 08:58 052 30.0
2015-Jul-01 08:53 048 0 gusting 4 29.4
2015-Jul-01 08:48 107 1 gusting 5 29.4
2015-Jul-01 08:43 107 2 gusting 5 29.4
2015-Jul-01 08:38 112 1 gusting 4 29.4
2015-Jul-01 08:33 146 29.4
2015-Jul-01 08:28 121 4 gusting 4 28.9
2015-Jul-01 08:23 017 0 gusting 4 28.9
2015-Jul-01 08:18 025 28.9
2015-Jul-01 08:13 119 2 gusting 4 28.9
2015-Jul-01 08:08 122 4 gusting 4 28.9
2015-Jul-01 08:03 080 1 gusting 4 28.3
2015-Jul-01 07:58 088 0 gusting 6 28.3
2015-Jul-01 07:53 086 27.8
2015-Jul-01 07:48 085 0 gusting 4 27.8
2015-Jul-01 07:43 092 2 gusting 4 27.8
2015-Jul-01 07:38 104 3 gusting 3 27.2
2015-Jul-01 07:33 103 2 gusting 3 27.2
2015-Jul-01 07:28 104 0 gusting 4 27.2
2015-Jul-01 07:23 104 0 gusting 4 27.2
2015-Jul-01 07:18 106 0 gusting 5 27.2
2015-Jul-01 07:13 109 26.7
2015-Jul-01 07:08 109 2 gusting 2 26.1
2015-Jul-01 07:03 102 1 gusting 2 26.1
2015-Jul-01 06:58 111 1 gusting 3 26.1
2015-Jul-01 06:53 167 25.6
2015-Jul-01 06:48 167 0 gusting 2 25.0
2015-Jul-01 06:43 167 24.4
2015-Jul-01 06:38 167 1 gusting 2 24.4
2015-Jul-01 06:33 167 23.9
2015-Jul-01 06:28 167 0 gusting 1 23.3
2015-Jul-01 06:23 167 0 gusting 1 23.3
2015-Jul-01 06:18 167 22.8
2015-Jul-01 06:13 167 22.8
2015-Jul-01 06:08 167 22.2
2015-Jul-01 06:03 167 22.2
2015-Jul-01 05:58 167 21.7
2015-Jul-01 05:53 167 0 gusting 3 21.7
2015-Jul-01 05:48 167 21.1
2015-Jul-01 05:43 167 1 gusting 3 21.1
2015-Jul-01 05:38 167 2 gusting 3 20.6
2015-Jul-01 05:33 167 2 gusting 3 20.6
2015-Jul-01 05:28 167 1 gusting 2 20.6
2015-Jul-01 05:23 167 2 gusting 3 20.6
2015-Jul-01 05:18 167 1 gusting 3 20.0
2015-Jul-01 05:13 167 0 gusting 2 20.0
2015-Jul-01 05:08 167 0 gusting 2 20.0
2015-Jul-01 05:03 167 0 gusting 2 19.4
2015-Jul-01 04:58 167 0 gusting 2 19.4
2015-Jul-01 04:53 167 1 gusting 2 19.4
2015-Jul-01 04:48 167 1 gusting 2 19.4
2015-Jul-01 04:43 167 1 gusting 2 18.9
2015-Jul-01 04:38 167 2 gusting 3 18.9
2015-Jul-01 04:33 167 1 gusting 3 18.9
2015-Jul-01 04:28 167 18.9
2015-Jul-01 04:23 167 2 gusting 3 18.9
2015-Jul-01 04:18 167 18.9
2015-Jul-01 04:13 167 1 gusting 4 18.9
2015-Jul-01 04:08 167 2 gusting 2 18.9
2015-Jul-01 04:03 167 3 gusting 2 18.9
2015-Jul-01 03:58 167 1 gusting 2 18.9
2015-Jul-01 03:53 167 1 gusting 3 18.9
2015-Jul-01 03:48 167 0 gusting 3 18.9
2015-Jul-01 03:43 167 1 gusting 3 18.9
2015-Jul-01 03:38 167 2 gusting 3 18.9
2015-Jul-01 03:33 167 1 gusting 3 18.9
2015-Jul-01 03:28 167 3 gusting 3 18.9
2015-Jul-01 03:23 167 0 gusting 3 18.9
2015-Jul-01 03:18 167 1 gusting 3 18.9
2015-Jul-01 03:13 167 1 gusting 2 18.9
2015-Jul-01 03:08 167 0 gusting 2 18.9
2015-Jul-01 03:03 167 0 gusting 2 18.9
2015-Jul-01 02:58 167 0 gusting 2 18.9
2015-Jul-01 02:53 167 0 gusting 2 18.9
2015-Jul-01 02:48 167 1 gusting 2 18.9
2015-Jul-01 02:43 167 2 gusting 2 18.9
2015-Jul-01 02:38 167 1 gusting 1 18.9
2015-Jul-01 02:33 167 1 gusting 1 18.9
2015-Jul-01 02:28 167 0 gusting 1 18.9
2015-Jul-01 02:23 167 0 gusting 1 19.4
2015-Jul-01 02:18 167 0 gusting 0 19.4
2015-Jul-01 02:13 167 0 gusting 0 19.4
2015-Jul-01 02:08 167 0 gusting 1 19.4
2015-Jul-01 02:03 167 19.4
2015-Jul-01 01:58 167 19.4
2015-Jul-01 01:53 167 19.4
2015-Jul-01 01:48 167 0 gusting 2 19.4
2015-Jul-01 01:43 167 19.4
2015-Jul-01 01:38 167 19.4
2015-Jul-01 01:33 167 19.4
2015-Jul-01 01:28 167 0 gusting 2 20.0
2015-Jul-01 01:23 167 1 gusting 0 20.0
2015-Jul-01 01:18 167 20.0
2015-Jul-01 01:13 167 0 gusting 3 20.0
2015-Jul-01 01:08 167 20.0
2015-Jul-01 01:03 167 20.0
2015-Jul-01 00:58 167 20.0
2015-Jul-01 00:53 167 20.0
2015-Jul-01 00:48 167 0 gusting 1 20.0
2015-Jul-01 00:43 167 1 gusting 2 20.6
2015-Jul-01 00:38 167 0 gusting 2 20.6
2015-Jul-01 00:33 167 0 gusting 2 20.6
2015-Jul-01 00:28 167 0 gusting 2 20.6
2015-Jul-01 00:23 167 20.6
2015-Jul-01 00:18 167 0 gusting 4 20.6
2015-Jul-01 00:13 167 0 gusting 5 20.6
2015-Jul-01 00:08 167 20.6
2015-Jul-01 00:03 167 0 gusting 5 20.6
2015-Jun-30 23:58 167 0 gusting 3 20.6
2015-Jun-30 23:53 169 2 gusting 3 20.6
2015-Jun-30 23:48 193 1 gusting 2 20.6
2015-Jun-30 23:43 209 1 gusting 2 21.1
2015-Jun-30 23:38 209 2 gusting 2 21.1
2015-Jun-30 23:33 209 1 gusting 1 21.1
2015-Jun-30 23:28 209 2 gusting 1 21.1
2015-Jun-30 23:23 209 1 gusting 1 21.1
2015-Jun-30 23:18 209 1 gusting 2 21.7
2015-Jun-30 23:13 209 0 gusting 1 21.7
2015-Jun-30 23:08 209 21.7
2015-Jun-30 23:03 209 1 gusting 1 21.7
2015-Jun-30 22:58 209 0 gusting 2 21.7
2015-Jun-30 22:53 209 0 gusting 2 21.7
2015-Jun-30 22:48 209 0 gusting 2 21.7
2015-Jun-30 22:43 209 0 gusting 1 22.2
2015-Jun-30 22:38 209 0 gusting 1 22.2
2015-Jun-30 22:33 209 22.2
2015-Jun-30 22:28 209 2 gusting 2 22.2
2015-Jun-30 22:23 209 22.2
2015-Jun-30 22:18 209 0 gusting 1 22.2
2015-Jun-30 22:13 209 22.8
2015-Jun-30 22:08 209 1 gusting 2 22.8
2015-Jun-30 22:03 209 0 gusting 2 22.8
2015-Jun-30 21:58 209 22.8
2015-Jun-30 21:53 209 22.8
2015-Jun-30 21:48 209 22.8
2015-Jun-30 21:43 209 1 gusting 1 23.3
2015-Jun-30 21:38 209 23.3
2015-Jun-30 21:33 209 23.3
2015-Jun-30 21:28 209 23.3
2015-Jun-30 21:23 209 23.9
2015-Jun-30 21:18 209 0 gusting 2 23.9
2015-Jun-30 21:13 209 0 gusting 1 23.9
2015-Jun-30 21:08 210 23.9
2015-Jun-30 21:03 210 0 gusting 1 24.4
2015-Jun-30 20:58 229 24.4
2015-Jun-30 20:53 229 25.0
2015-Jun-30 20:48 229 25.0
2015-Jun-30 20:38 229 25.0
2015-Jun-30 20:33 229 25.0
2015-Jun-30 20:28 229 0 gusting 1 25.0
2015-Jun-30 20:23 258 25.0
2015-Jun-30 20:18 258 25.6
2015-Jun-30 20:13 258 25.6
2015-Jun-30 20:08 258 0 gusting 1 25.6
2015-Jun-30 20:03 258 25.6
2015-Jun-30 19:58 258 25.6
2015-Jun-30 19:53 258 1 gusting 2 25.6
2015-Jun-30 19:48 258 0 gusting 4 26.1
2015-Jun-30 19:43 258 26.1
2015-Jun-30 19:38 258 26.1
2015-Jun-30 19:33 258 0 gusting 5 26.1
2015-Jun-30 19:28 270 0 gusting 3 26.1
2015-Jun-30 19:23 250 5 gusting 3 26.7
2015-Jun-30 19:18 266 26.7
2015-Jun-30 19:13 263 0 gusting 5 26.7
2015-Jun-30 19:08 263 26.7
2015-Jun-30 19:03 263 26.7
2015-Jun-30 18:58 262 2 gusting 6 26.7
2015-Jun-30 18:53 257 3 gusting 6 27.2
2015-Jun-30 18:48 268 0 gusting 5 27.2
2015-Jun-30 18:43 261 1 gusting 8 27.2
2015-Jun-30 18:38 229 0 gusting 8 27.8
2015-Jun-30 18:33 249 1 gusting 7 27.8
2015-Jun-30 18:28 261 3 gusting 7 27.8
2015-Jun-30 18:23 272 0 gusting 7 27.8
2015-Jun-30 18:18 281 2 gusting 9 28.3
2015-Jun-30 18:13 258 0 gusting 9 28.3
2015-Jun-30 18:08 259 2 gusting 7 28.3
2015-Jun-30 18:03 258 3 gusting 7 28.3
2015-Jun-30 17:58 262 3 gusting 7 28.3
2015-Jun-30 17:53 265 0 gusting 7 28.9
2015-Jun-30 17:48 269 5 gusting 7 28.9
2015-Jun-30 17:43 252 4 gusting 8 28.9
2015-Jun-30 17:38 261 6 gusting 8 28.9
2015-Jun-30 17:33 258 5 gusting 8 28.9
2015-Jun-30 17:28 269 6 gusting 7 28.9
2015-Jun-30 17:23 290 1 gusting 7 28.9
2015-Jun-30 17:18 255 3 gusting 9 29.4
2015-Jun-30 17:13 270 3 gusting 7 29.4
2015-Jun-30 17:08 260 5 gusting 7 29.4
2015-Jun-30 17:03 259 5 gusting 7 29.4
2015-Jun-30 16:58 275 5 gusting 11 29.4
2015-Jun-30 16:53 286 4 gusting 9 30.0
2015-Jun-30 16:48 283 5 gusting 9 30.0
2015-Jun-30 16:43 259 6 gusting 10 30.0
2015-Jun-30 16:38 271 3 gusting 10 30.0
2015-Jun-30 16:33 270 4 gusting 12 30.0
2015-Jun-30 16:28 271 5 gusting 12 30.0
2015-Jun-30 16:23 257 0 gusting 9 30.6
2015-Jun-30 16:18 273 3 gusting 9 30.6
2015-Jun-30 16:13 291 6 gusting 13 30.6
2015-Jun-30 16:08 261 3 gusting 13 30.6
2015-Jun-30 16:03 265 2 gusting 13 30.6
2015-Jun-30 15:58 265 2 gusting 10 30.6
2015-Jun-30 15:53 265 3 gusting 10 30.6
2015-Jun-30 15:43 279 2 gusting 9 30.6
2015-Jun-30 15:38 261 5 gusting 9 30.6
2015-Jun-30 15:33 293 4 gusting 9 30.6
2015-Jun-30 15:28 284 8 gusting 9 31.1
2015-Jun-30 15:23 259 5 gusting 9 31.1
2015-Jun-30 15:18 268 4 gusting 9 31.1
2015-Jun-30 15:13 293 2 gusting 9 30.6
2015-Jun-30 15:08 290 9 gusting 9 30.6
2015-Jun-30 15:03 263 4 gusting 9 31.1
2015-Jun-30 14:58 290 1 gusting 13 31.1
2015-Jun-30 14:53 265 4 gusting 13 31.1
2015-Jun-30 14:48 283 5 gusting 11 31.1
2015-Jun-30 14:43 298 4 gusting 11 31.1
2015-Jun-30 14:38 294 6 gusting 10 30.6
2015-Jun-30 14:33 255 7 gusting 10 31.1
2015-Jun-30 14:28 267 6 gusting 13 31.1
2015-Jun-30 14:23 309 4 gusting 13 31.7
2015-Jun-30 14:18 286 2 gusting 12 31.7
2015-Jun-30 14:13 296 2 gusting 12 31.1
2015-Jun-30 14:08 272 4 gusting 12 31.1
2015-Jun-30 14:03 257 6 gusting 12 31.1
2015-Jun-30 13:58 275 6 gusting 10 31.7
2015-Jun-30 13:53 277 11 gusting 10 32.2
2015-Jun-30 13:48 258 6 gusting 11 32.2
2015-Jun-30 13:43 294 3 gusting 11 32.2
2015-Jun-30 13:38 332 10 gusting 11 32.2
2015-Jun-30 13:33 270 3 gusting 11 32.2
2015-Jun-30 13:28 321 6 gusting 10 32.2
2015-Jun-30 13:23 257 5 gusting 11 32.2
2015-Jun-30 13:18 278 7 gusting 11 32.2
2015-Jun-30 13:13 277 5 gusting 11 32.2
2015-Jun-30 13:08 290 3 gusting 8 31.7
2015-Jun-30 13:03 273 2 gusting 8 32.8
2015-Jun-30 12:58 271 5 gusting 4 33.3
2015-Jun-30 12:53 333 6 gusting 4 33.3
2015-Jun-30 12:48 247 3 gusting 3 33.9
2015-Jun-30 12:43 111 0 gusting 6 32.8
2015-Jun-30 12:38 111 32.8
2015-Jun-30 12:33 111 32.2
2015-Jun-30 12:28 111 32.2
2015-Jun-30 12:23 121 2 gusting 3 32.8
2015-Jun-30 12:18 055 1 gusting 3 32.8
2015-Jun-30 12:13 070 1 gusting 4 32.8
2015-Jun-30 12:08 028 32.8
2015-Jun-30 12:03 029 32.2